Change the Weather History Date:

Saturday, March 16, 2013

  Actual Average Record
Temperature  
Mean Temperature 61 °F -  
Max Temperature 72 °F 58 °F 79 °F (1982)
Min Temperature 49 °F 36 °F 14 °F (1970)
Degree Days  
Heating Degree Days 4    
Growing Degree Days 11 (Base 50)    
Moisture  
Dew Point 46 °F    
Average Humidity 56    
Maximum Humidity 79    
Minimum Humidity 43    
Precipitation  
Precipitation 0.00 in - - ()
Sea Level Pressure  
Sea Level Pressure 29.83 in    
Wind  
Wind Speed 10 mph (West)    
Max Wind Speed 22 mph    
Max Gust Speed 30 mph    
Visibility 10 miles    
Events      
Averages and records for this station are not official NWS values.
T = Trace of Precipitation, MM = Missing Value Source: NWS Daily Summary

Daily Weather History Graph

Daily Weather History Graph

Search for Another Location

Airport or City:

Trip Planner

Search our weather history database for the weather conditions in past years. The results will help you decide how hot, cold, wet, or windy it might be!

Date:

Astronomy

Mar. 16, 2013 Rise Set
Actual Time 6:52 AM CDT 6:52 PM CDT
Civil Twilight 6:27 AM CDT 7:18 PM CDT
Nautical Twilight 5:56 AM CDT 7:48 PM CDT
Astronomical Twilight 5:26 AM CDT 8:18 PM CDT
Moon 9:29 AM CDT (3/16) 11:53 PM CDT (3/16)
Length of Visible Light 12h 51m
Length of Day
11h 59m
Waxing Crescent, 23% of the Moon is Illuminated
Mar 16
Waxing Crescent
Mar 19
First Quarter
Mar 27
Full
Apr 2
Last Quarter
Apr 10
New

Hourly Weather History & Observations

Time (CDT) Temp. Dew Point Humidity Pressure Visibility Wind Dir Wind Speed Gust Speed Precip Events Conditions
12:15 AM 54.3 °F 47.8 °F 79% 29.80 in 10.0 mi SW 4.6 mph - N/A   Clear
12:35 AM 55.2 °F 46.6 °F 73% 29.80 in 10.0 mi SSW 3.5 mph - N/A   Clear
12:55 AM 55.4 °F 45.9 °F 70% 29.79 in 10.0 mi Calm Calm - N/A   Clear
1:15 AM 55.6 °F 45.5 °F 69% 29.79 in 10.0 mi SSW 3.5 mph - N/A   Clear
1:35 AM 54.9 °F 44.8 °F 69% 29.79 in 10.0 mi SW 5.8 mph - N/A   Scattered Clouds
1:55 AM 56.7 °F 44.6 °F 64% 29.79 in 10.0 mi SW 5.8 mph - N/A   Clear
2:15 AM 57.2 °F 45.0 °F 64% 29.78 in 10.0 mi SW 6.9 mph - N/A   Clear
2:35 AM 58.5 °F 45.5 °F 62% 29.78 in 10.0 mi SW 8.1 mph - N/A   Clear
2:55 AM 58.8 °F 45.7 °F 62% 29.78 in 10.0 mi SW 9.2 mph - N/A   Clear
3:15 AM 59.7 °F 45.7 °F 60% 29.77 in 10.0 mi SW 9.2 mph - N/A   Clear
3:35 AM 60.4 °F 45.7 °F 58% 29.77 in 10.0 mi SW 11.5 mph 17.3 mph N/A   Clear
3:55 AM 60.8 °F 45.5 °F 57% 29.77 in 10.0 mi SW 13.8 mph - N/A   Clear
4:35 AM 61.2 °F 45.0 °F 55% 29.77 in 10.0 mi SW 15.0 mph 21.9 mph N/A   Clear
4:55 AM 61.0 °F 44.8 °F 55% 29.77 in 10.0 mi SW 13.8 mph 19.6 mph N/A   Clear
5:15 AM 61.2 °F 44.6 °F 54% 29.77 in 10.0 mi SW 15.0 mph - N/A   Clear
5:35 AM 61.0 °F 44.2 °F 54% 29.77 in 10.0 mi SW 13.8 mph 18.4 mph N/A   Clear
5:55 AM 60.8 °F 44.1 °F 54% 29.77 in 10.0 mi SW 11.5 mph 17.3 mph N/A   Clear
6:35 AM 59.9 °F 43.9 °F 55% 29.78 in 10.0 mi SW 10.4 mph 17.3 mph N/A   Clear
6:55 AM 59.7 °F 43.7 °F 55% 29.78 in 10.0 mi SW 11.5 mph - N/A   Clear
7:15 AM 59.9 °F 44.1 °F 56% 29.78 in 10.0 mi SW 11.5 mph 19.6 mph N/A   Clear
7:35 AM 60.8 °F 44.4 °F 55% 29.78 in 10.0 mi SW 15.0 mph 21.9 mph N/A   Clear
7:55 AM 61.0 °F 44.8 °F 55% 29.79 in 10.0 mi SW 15.0 mph 20.7 mph N/A   Clear
8:15 AM 61.5 °F 45.1 °F 55% 29.79 in 10.0 mi SW 16.1 mph 21.9 mph N/A   Clear
8:35 AM 62.2 °F 45.5 °F 54% 29.80 in 10.0 mi WSW 16.1 mph 21.9 mph N/A   Clear
8:55 AM 63.0 °F 46.0 °F 54% 29.80 in 10.0 mi SW 16.1 mph 25.3 mph N/A   Clear
9:15 AM 64.0 °F 46.4 °F 53% 29.80 in 10.0 mi WSW 17.3 mph 25.3 mph N/A   Clear
9:35 AM 65.1 °F 46.9 °F 52% 29.80 in 10.0 mi SW 15.0 mph 26.5 mph N/A   Clear
9:55 AM 66.2 °F 47.3 °F 51% 29.80 in 10.0 mi WSW 15.0 mph 27.6 mph N/A   Clear
10:15 AM 66.4 °F 47.3 °F 50% 29.80 in 10.0 mi WSW 21.9 mph 29.9 mph N/A   Clear
10:35 AM 67.1 °F 48.0 °F 50% 29.80 in 10.0 mi WSW 19.6 mph 27.6 mph N/A   Clear
10:55 AM 68.0 °F 48.2 °F 49% 29.80 in 10.0 mi West 18.4 mph 27.6 mph N/A   Clear
11:15 AM 68.4 °F 48.4 °F 49% 29.80 in 10.0 mi WSW 13.8 mph 27.6 mph N/A   Clear
11:35 AM 69.4 °F 48.6 °F 47% 29.80 in 10.0 mi WSW 18.4 mph 28.8 mph N/A   Clear
11:55 AM 70.0 °F 48.9 °F 47% 29.81 in 10.0 mi SW 21.9 mph 28.8 mph N/A   Clear
12:15 PM 70.3 °F 49.3 °F 47% 29.81 in 10.0 mi WSW 15.0 mph 29.9 mph N/A   Scattered Clouds
12:35 PM 70.7 °F 49.8 °F 48% 29.81 in 10.0 mi WSW 15.0 mph 23.0 mph N/A   Mostly Cloudy
12:55 PM 71.2 °F 49.3 °F 46% 29.81 in 10.0 mi WSW 16.1 mph 24.2 mph N/A   Mostly Cloudy
1:15 PM 71.2 °F 48.2 °F 44% 29.81 in 10.0 mi West 16.1 mph 23.0 mph N/A   Scattered Clouds
1:35 PM 71.6 °F 48.6 °F 44% 29.81 in 10.0 mi West 15.0 mph 21.9 mph N/A   Mostly Cloudy
1:55 PM 71.4 °F 48.7 °F 45% 29.81 in 10.0 mi West 15.0 mph 18.4 mph N/A   Overcast
2:15 PM 71.2 °F 48.2 °F 44% 29.81 in 10.0 mi WSW 12.7 mph 19.6 mph N/A   Overcast
2:35 PM 70.9 °F 48.4 °F 45% 29.81 in 10.0 mi WNW 10.4 mph 18.4 mph N/A   Overcast
2:55 PM 70.3 °F 48.2 °F 45% 29.81 in 10.0 mi West 8.1 mph - N/A   Overcast
3:15 PM 70.5 °F 48.2 °F 45% 29.80 in 10.0 mi West 12.7 mph 17.3 mph N/A   Overcast
3:35 PM 72.0 °F 48.2 °F 43% 29.81 in 10.0 mi West 9.2 mph 16.1 mph N/A   Scattered Clouds
3:55 PM 72.0 °F 48.0 °F 43% 29.81 in 10.0 mi West 11.5 mph 16.1 mph N/A   Scattered Clouds
4:15 PM 71.2 °F 48.2 °F 44% 29.82 in 10.0 mi West 9.2 mph 19.6 mph N/A   Scattered Clouds
4:35 PM 71.2 °F 48.6 °F 45% 29.83 in 10.0 mi West 9.2 mph - N/A   Scattered Clouds
4:55 PM 71.4 °F 48.0 °F 43% 29.83 in 10.0 mi NW 12.7 mph 17.3 mph N/A   Scattered Clouds
5:15 PM 70.7 °F 47.8 °F 44% 29.84 in 10.0 mi WNW 8.1 mph - N/A   Mostly Cloudy
5:35 PM 70.7 °F 48.7 °F 46% 29.84 in 10.0 mi NNW 9.2 mph - N/A   Mostly Cloudy
5:55 PM 68.2 °F 48.7 °F 50% 29.85 in 10.0 mi NW 10.4 mph - N/A   Scattered Clouds
6:15 PM 66.4 °F 48.2 °F 52% 29.86 in 10.0 mi NW 9.2 mph - N/A   Clear
6:35 PM 64.4 °F 47.3 °F 54% 29.87 in 10.0 mi NNW 8.1 mph - N/A   Clear
6:55 PM 61.7 °F 46.2 °F 57% 29.88 in 10.0 mi NNW 8.1 mph - N/A   Clear
7:15 PM 60.4 °F 45.3 °F 57% 29.88 in 10.0 mi North 9.2 mph - N/A   Clear
7:35 PM 58.1 °F 45.3 °F 62% 29.89 in 10.0 mi North 8.1 mph - N/A   Clear
7:55 PM 55.8 °F 44.6 °F 66% 29.91 in 10.0 mi North 5.8 mph - N/A   Clear
8:15 PM 54.1 °F 43.9 °F 68% 29.92 in 10.0 mi NNW 4.6 mph - N/A   Clear
8:35 PM 53.8 °F 43.2 °F 67% 29.93 in 10.0 mi North 8.1 mph - N/A   Clear
8:55 PM 53.2 °F 42.4 °F 67% 29.95 in 10.0 mi North 4.6 mph - N/A   Clear
9:15 PM 52.0 °F 42.4 °F 70% 29.95 in 7.0 mi North 8.1 mph - N/A   Clear
9:55 PM 51.6 °F 41.9 °F 69% 29.95 in 7.0 mi North 9.2 mph - N/A   Clear
10:15 PM 51.3 °F 41.9 °F 70% 29.95 in 7.0 mi North 8.1 mph - N/A   Scattered Clouds
10:35 PM 50.9 °F 41.5 °F 70% 29.95 in 7.0 mi NNE 5.8 mph - N/A   Scattered Clouds
10:55 PM 50.7 °F 41.2 °F 70% 29.96 in 7.0 mi North 9.2 mph - N/A   Mostly Cloudy
11:15 PM 50.4 °F 41.0 °F 70% 29.95 in 7.0 mi NNE 3.5 mph - N/A   Overcast
11:35 PM 50.0 °F 41.0 °F 71% 29.95 in 7.0 mi North 3.5 mph - N/A   Overcast
11:55 PM 49.6 °F 41.0 °F 72% 29.96 in 7.0 mi Calm Calm - N/A   Overcast